Weather History for Tucson Davis Monthan, AZ

Change the Weather History Date:

Monday, October 1, 2012

  Actual Average Record
Temperature  
Mean Temperature 80 °F -  
Max Temperature 97 °F 90 °F 102 °F (2003)
Min Temperature 63 °F 63 °F 51 °F (1965)
Cooling Degree Days 15    
Growing Degree Days 30 (Base 50)    
Moisture  
Dew Point 31 °F    
Average Humidity 19    
Maximum Humidity 35    
Minimum Humidity 7    
Precipitation  
Precipitation 0.00 in - - ()
Sea Level Pressure  
Sea Level Pressure 29.80 in    
Wind  
Wind Speed 5 mph (SE)    
Max Wind Speed 10 mph    
Max Gust Speed -    
Visibility 10 miles    
Events      
Averages and records for this station are not official NWS values.
T = Trace of Precipitation, MM = Missing Value Source: NWS Daily Summary

Daily Weather History Graph

Daily Weather History Graph

Search for Another Location

Airport:

Trip Planner

Search our weather history database for the weather conditions in past years. The results will help you decide how hot, cold, wet, or windy it might be!

Date:

Astronomy

Oct. 01, 2012 Rise Set
Actual Time 6:17 AM MST 6:07 PM MST
Civil Twilight 5:53 AM MST 6:32 PM MST
Nautical Twilight 5:25 AM MST 7:00 PM MST
Astronomical Twilight 4:56 AM MST 7:28 PM MST
Moon 6:56 PM MST (10/1) 7:42 AM MST (10/1)
Length of Visible Light 12h 38m
Length of Day
11h 49m
Full, 97% of the Moon is Illuminated
Oct 1
Full
Oct 8
Last Quarter
Oct 15
New
Oct 21
First Quarter
Oct 29
Full

Hourly Weather History & Observations

Time (MST) Temp. Dew Point Humidity Pressure Visibility Wind Dir Wind Speed Gust Speed Precip Events Conditions
12:55 AM 69.4 °F 31.6 °F 25% 29.80 in 10.0 mi SE 5.8 mph - N/A   Clear
1:55 AM 67.6 °F 32.0 °F 27% 29.80 in 10.0 mi SSE 5.8 mph - N/A   Clear
2:55 AM 65.5 °F 33.6 °F 31% 29.79 in 10.0 mi SSE 3.5 mph - N/A   Clear
3:55 AM 64.6 °F 34.5 °F 33% 29.81 in 10.0 mi SE 10.4 mph - N/A   Clear
4:55 AM 63.3 °F 34.9 °F 35% 29.82 in 10.0 mi SE 3.5 mph - N/A   Clear
5:55 AM 64.4 °F 34.7 °F 33% 29.84 in 10.0 mi SE 9.2 mph - N/A   Clear
6:55 AM 66.0 °F 34.2 °F 31% 29.86 in 10.0 mi SE 6.9 mph - N/A   Clear
7:55 AM 72.3 °F 35.1 °F 26% 29.87 in 10.0 mi SSE 5.8 mph - N/A   Clear
8:55 AM 78.3 °F 35.8 °F 22% 29.86 in 10.0 mi SSE 5.8 mph - N/A   Clear
9:55 AM 85.1 °F 33.4 °F 16% 29.85 in 10.0 mi Calm Calm - N/A   Clear
10:55 AM 88.7 °F 30.6 °F 12% 29.84 in 10.0 mi Calm Calm - N/A   Clear
11:55 AM 91.9 °F 30.6 °F 11% 29.82 in 10.0 mi NNE 5.8 mph - N/A   Clear
12:55 PM 94.6 °F 26.2 °F 9% 29.78 in 10.0 mi Variable 4.6 mph - N/A   Clear
1:55 PM 96.4 °F 26.6 °F 8% 29.77 in 10.0 mi Variable 5.8 mph - N/A   Clear
2:55 PM 96.8 °F 25.5 °F 8% 29.76 in 10.0 mi Variable 3.5 mph - N/A   Clear
3:55 PM 97.2 °F 24.1 °F 7% 29.74 in 10.0 mi Variable 5.8 mph - N/A   Clear
4:55 PM 95.9 °F 25.0 °F 8% 29.75 in 10.0 mi Calm Calm - N/A   Clear
5:55 PM 93.6 °F 24.4 °F 8% 29.75 in 10.0 mi Calm Calm - N/A   Clear
6:55 PM 88.7 °F 28.4 °F 11% 29.76 in 10.0 mi North 4.6 mph - N/A   Clear
7:55 PM 84.6 °F 30.9 °F 14% 29.78 in 10.0 mi NW 5.8 mph - N/A   Clear
8:55 PM 82.4 °F 30.9 °F 15% 29.78 in 10.0 mi SSE 3.5 mph - N/A   Clear
9:55 PM 80.1 °F 32.0 °F 17% 29.78 in 10.0 mi SE 8.1 mph - N/A   Clear
10:55 PM 78.8 °F 32.9 °F 19% 29.77 in 10.0 mi SE 3.5 mph - N/A   Clear
11:55 PM 76.5 °F 33.6 °F 21% 29.77 in 10.0 mi ESE 8.1 mph - N/A   Clear